カタログに戻る

FENGYUN 1C DEB

運用中SSO
NORAD 32165·DEBRIS·🇨🇳 China

打ち上げ May 10, 1999 から Taiyuan Satellite Launch Center

Loading…

次のパス (今後24時間)

TLE

古いSource: Space-Track

元期: Aug 19, 2026, 13:25 UTC

1 32165U 99025CTK 26231.55970968  .00001618  00000-0  94584-3 0  9994
2 32165  98.6249 149.7178 0136183 154.7824 206.0076 14.05118458666407

AllMySatでFENGYUN 1C DEBをリアルタイム追跡

Download on the App Store